Weather History for Honolulu, HI

Change the Weather History Date:

Sunday, May 4, 2014

  Actual Average Record
Temperature  
Mean Temperature 78 °F 77 °F  
Max Temperature 83 °F 84 °F 88 °F (1974)
Min Temperature 72 °F 70 °F 64 °F (1981)
Degree Days  
Heating Degree Days 0 0  
Month to date heating degree days 0 0  
Since 1 July heating degree days 0 0  
Cooling Degree Days 13 12  
Month to date cooling degree days 49 48  
Year to date cooling degree days 1243 1155  
Growing Degree Days 27 (Base 50)    
Moisture  
Dew Point 67 °F    
Average Humidity 68    
Maximum Humidity 84    
Minimum Humidity 51    
Precipitation  
Precipitation 0.00 in 0.02 in 1.04 in (1965)
Month to date precipitation T 0.09  
Year to date precipitation 6.62 7.04  
Snow  
Snow 0.00 in - - ()
Month to date snowfall 0.0  
Since 1 July snowfall 0.0  
Snow Depth 0.00 in    
Sea Level Pressure  
Sea Level Pressure 30.04 in    
Wind  
Wind Speed 5 mph (SSE)    
Max Wind Speed 12 mph    
Max Gust Speed 16 mph    
Visibility 10 miles    
Events      
T = Trace of Precipitation, MM = Missing Value Source: NWS Daily Summary

Daily Weather History Graph

Daily Weather History Graph

Search for Another Location

Airport:

Trip Planner

Search our weather history database for the weather conditions in past years. The results will help you decide how hot, cold, wet, or windy it might be!

Date:

Astronomy

May. 04, 2014 Rise Set
Actual Time 5:58 AM HST 6:58 PM HST
Civil Twilight 5:35 AM HST 7:21 PM HST
Nautical Twilight 5:07 AM HST 7:49 PM HST
Astronomical Twilight 4:39 AM HST 8:17 PM HST
Moon 10:35 AM HST (5/4) 11:51 PM HST (5/4)
Length of Visible Light 13h 46m
Length of Day
12h 59m
Waxing Crescent, 30% of the Moon is Illuminated
May 4
Waxing Crescent
May 6
First Quarter
May 14
Full
May 21
Last Quarter
May 28
New

Hourly Weather History & Observations

Time (HST) Temp. Heat Index Dew Point Humidity Pressure Visibility Wind Dir Wind Speed Gust Speed Precip Events Conditions
12:53 AM 73.9 °F - 66.9 °F 79% 30.05 in 10.0 mi Calm Calm - N/A   Scattered Clouds
1:53 AM 75.0 °F - 68.0 °F 79% 30.04 in 10.0 mi North 3.5 mph - N/A   Scattered Clouds
2:53 AM 73.9 °F - 66.9 °F 79% 30.03 in 10.0 mi North 3.5 mph - N/A   Partly Cloudy
3:53 AM 73.0 °F - 66.0 °F 79% 30.03 in 10.0 mi Calm Calm - N/A   Partly Cloudy
4:53 AM 73.9 °F - 66.9 °F 79% 30.04 in 10.0 mi NNW 3.5 mph - N/A   Scattered Clouds
5:53 AM 72.0 °F - 66.0 °F 81% 30.05 in 10.0 mi North 4.6 mph - N/A   Partly Cloudy
6:53 AM 73.0 °F - 66.0 °F 79% 30.06 in 10.0 mi NW 3.5 mph - N/A   Scattered Clouds
7:53 AM 77.0 °F - 66.9 °F 71% 30.06 in 10.0 mi North 3.5 mph - N/A   Scattered Clouds
8:53 AM 78.1 °F - 66.9 °F 68% 30.07 in 10.0 mi Calm Calm - N/A   Overcast
9:53 AM 79.0 °F - 66.9 °F 66% 30.07 in 10.0 mi SSE 4.6 mph - N/A   Mostly Cloudy
10:53 AM 81.0 °F 83.3 °F 66.9 °F 62% 30.07 in 10.0 mi South 6.9 mph - N/A   Mostly Cloudy
11:53 AM 82.9 °F 83.7 °F 62.1 °F 49% 30.06 in 10.0 mi SSE 9.2 mph - N/A   Mostly Cloudy
12:53 PM 82.0 °F 83.1 °F 63.0 °F 52% 30.04 in 10.0 mi SSE 5.8 mph - N/A   Mostly Cloudy
1:53 PM 82.9 °F 85.0 °F 66.0 °F 56% 30.02 in 10.0 mi SSE 9.2 mph - N/A   Mostly Cloudy
2:53 PM 82.9 °F 85.0 °F 66.0 °F 56% 30.00 in 10.0 mi South 10.4 mph - N/A   Mostly Cloudy
3:53 PM 82.0 °F 84.1 °F 66.0 °F 58% 30.00 in 10.0 mi SSE 8.1 mph - N/A   Mostly Cloudy
4:53 PM 80.1 °F 82.7 °F 68.0 °F 67% 29.99 in 10.0 mi SSE 5.8 mph - N/A   Mostly Cloudy
5:53 PM 80.1 °F 82.7 °F 68.0 °F 67% 30.01 in 10.0 mi SSE 9.2 mph - N/A   Mostly Cloudy
6:53 PM 79.0 °F - 66.9 °F 66% 30.03 in 10.0 mi South 3.5 mph - N/A   Mostly Cloudy
7:53 PM 78.1 °F - 68.0 °F 71% 30.04 in 10.0 mi SE 5.8 mph - N/A   Mostly Cloudy
8:53 PM 78.1 °F - 66.9 °F 68% 30.06 in 10.0 mi SE 4.6 mph - N/A   Mostly Cloudy
9:53 PM 77.0 °F - 68.0 °F 74% 30.06 in 10.0 mi ESE 5.8 mph - N/A   Mostly Cloudy
10:53 PM 75.9 °F - 68.0 °F 76% 30.07 in 10.0 mi Calm Calm - N/A   Scattered Clouds
11:53 PM 75.0 °F - 66.9 °F 76% 30.07 in 10.0 mi Calm Calm - N/A   Scattered Clouds